Regional Weather Roundup
Issued by NWS

Home | Current Version | Previous Version | Graphics & Text | Print | Product List | Glossary On
Versions: 1 2 3 4 5 6 7 8 9 10 11 12 13 14 15 16 17 18 19 20 21 22 23 24 25 26 27 28 29 30 31 32 33 34 35 36 37 38 39 40 41 42 43 44 45 46 47 48 49 50
944
ASUS45 KBOI 251910
RWRID

IDAHO REGIONAL WEATHER ROUNDUP
NATIONAL WEATHER SERVICE BOISE ID
100 PM MDT FRI MAY 25 2018

NOTE: "FAIR" INDICATES FEW OR NO CLOUDS BELOW 12000 FEET
WITH NO SIGNIFICANT WEATHER AND/OR OBSTRUCTIONS TO VISIBILITY

IDZ012-014-252000-
SOUTHWEST IDAHO


CITY           SKY/WX    TMP DP  RH WIND       PRES   REMARKS
BOISE          SUNNY     79  53  40 VRB5      29.84F
CALDWELL       SUNNY     78  57  48 W7        29.84F
MOUNTAIN HOME  MOSUNNY   79  52  39 SW6       29.85F
$$

IDZ016-017-252000-
SOUTHCENTRAL IDAHO


CITY           SKY/WX    TMP DP  RH WIND       PRES   REMARKS
BURLEY         SUNNY     83  46  27 CALM      29.89F
JEROME         SUNNY     80  49  33 N7        29.90F
TWIN FALLS     MOSUNNY   80  52  37 NE10      29.90F
$$

IDZ019>023-252000-
SOUTHEAST IDAHO


CITY           SKY/WX    TMP DP  RH WIND       PRES   REMARKS
IDAHO FALLS    MOSUNNY   76  55  48 N7        29.99F
POCATELLO      MOSUNNY   80  52  37 VRB7      29.95F
REXBURG        SUNNY     75  50  41 NE7       30.00F
$$

IDZ006-010-011-018-031-032-252000-
CENTRAL IDAHO MOUNTAINS


CITY           SKY/WX    TMP DP  RH WIND       PRES   REMARKS
MCCALL         SUNNY     72  45  37 NW5       29.94F
HAILEY         MOSUNNY   73  48  40 SE12      30.01S
STANLEY          N/A     69  39  33 SW6       30.02F
SALMON         SUNNY     70  51  51 NW5       29.96F
CHALLIS        SUNNY     72  49  44 CALM      29.98F
$$

IDZ002-004-006-007-026-252000-
NORTHERN IDAHO


CITY           SKY/WX    TMP DP  RH WIND       PRES   REMARKS
LEWISTON       MOSUNNY   77  57  50 NW5       29.86F
LOWELL           N/A     76  53  44 CALM      29.81F
COEUR D`ALENE  MOSUNNY   76  54  46 SW3       29.90F
MULLAN PASS    PTSUNNY   61  40  45 CALM      30.05F
$$




USA.gov is the U.S. government's official web portal to all federal, state and local government web resources and services.